1998-067IB

Last updated on Thu May 19 2016 08:36:27 GMT+0100 (British Summer Time)

1 41481U 98067JB 16140.10116988 .00153481 00000-0 21631-2 0 9991 2 41481 51.6406 203.1337 0001779 222.8854 229.8105 15.55580163 259

Satellite not in orbit